星链-2376 (STARLINK-2376 )

导读 | 星芒AI

STARLINK-2376 是 SpaceX Starlink 项目中的一颗低轨通信卫星,属于第 23 批发射的星链卫星群。该卫星部署在约 550 公里的轨道高度,旨在为全球用户提供高速互联网服务。它采用先进的相控阵天线和激光通信技术,支持低延迟、高带宽的连接。作为星链计划的一部分,STARLINK-2376 有助于扩大卫星互联网覆盖范围,特别是在偏远和网络基础设施薄弱的地区。

基本信息
目录编号:
47915
目录名称:
STARLINK-2376
国际标识:
2021-021BH
轨道中心:
EARTH
卫星名称:
星链-2376
卫星全名:
星链-2376 (STARLINK-2376 )
卫星状态:
已陨落 最后检测时间 2024-05-15
发射日期:
2021-03-14 UTC
国别 :
美国 (US)
星等 :
--
轨道信息
数据来源 国际轨道数据
星历时间: 2024-05-15T14:37:24+0800
轨道信息已过期535天
半长轴: 6567.21km
偏心率: 0.0010015
轨道倾角: 53.024°
近地点辐角 273.211°
升交点赤经 330.551°
平近点角 268.270°
近地点: 182.497km
远地点: 195.653km
周期: 88.274分钟
每日圈数: 16.312909
详细信息
固有亮度:
5
最大亮度:
2.5
卫星平台:
Starlink V1.0
覆盖范围:
全球
运营商:
太空探索技术公司
运营商所在国:
美国
制造商(研发单位):
太空探索技术公司
制造商所在国:
美国
使用方式:
暂无
卫星简介
星链(Starlink)计划是由太空探索技术公司(SpaceX)提出的一个巨型低轨卫星互联网星座项目,计划在2019年至2024年间在太空搭建由约1.2万颗卫星组成的“星链”网络,其中1584颗将部署在地球上空550千米处的近地轨道,并从2020年开始工作。该卫星已陨落。